RH
48 49 42 35 30 25 24 24 23 22 19 18 17 18 19 20 22 22 22 23 22 23 22 23 24 23 24 27 28 26 26 28 31 36 36 36 35 43 47 41 37 30 21 20 17
50 42 40 34 30 28 29 30 28 19 18 17 18 22 24 21 23 24 24 25 24 22 22 22 24 26 28 27 26 25 25 23 24 27 31 34 33 33 39 55 43 39 32 23 23
56 53 48 39 35 35 37 33 25 20 17 20 24 27 26 24 28 28 28 28 25 26 29 33 30 29 28 29 28 27 25 23 24 24 26 30 32 36 37 48 61 42 40 29 25
62 70 67 51 47 44 35 28 19 19 20 22 28 26 26 28 34 38 36 38 34 32 34 35 36 32 27 24 22 23 22 21 23 26 28 32 36 32 35 42 41 46 32 36 25
68 83 72 59 52 42 28 17 18 19 18 22 27 35 34 35 38 46 48 46 40 37 36 34 39 31 31 32 32 33 34 31 28 26 25 26 29 36 33 31 33 31 32 24 27
78 93 75 58 42 29 26 20 26 26 20 24 31 43 36 39 38 54 67 50 43 38 36 43 43 41 56 42 36 34 33 31 33 28 25 23 25 25 28 25 24 29 30 28 24
75 82 71 54 42 31 28 28 32 26 19 25 33 41 39 40 50 60 76 58 43 38 42 40 53 59 65 49 40 32 29 27 24 25 26 24 24 20 22 23 21 21 25 22 24
80 90 69 57 43 42 33 30 32 25 21 24 35 37 38 53 56 52 68 73 40 39 38 57 57 62 63 44 38 31 26 25 27 21 18 17 20 17 15 16 20 22 22 31 28
93 84 70 57 56 43 22 24 29 28 24 24 34 46 48 67 69 61 58 62 38 41 48 59 54 75 73 56 39 30 27 21 14 10 10 9 10 10 9 10 13 16 19 20 26
86 84 61 49 37 24 23 26 32 22 23 31 45 42 49 90 94 63 48 40 34 48 46 58 62 79 66 46 34 27 22 11 8 8 7 8 10 11 9 9 8 9 12 16 16
89 44 31 23 28 30 39 38 21 23 32 31 44 44 58 87 95 52 48 40 37 41 49 62 80 80 67 44 30 27 14 10 10 12 12 8 10 11 12 11 10 9 8 10 14
62 47 38 27 21 32 33 24 27 26 32 40 35 43 63 88 99 55 49 48 52 45 57 71 77 71 68 51 31 23 13 12 12 12 14 12 12 11 12 11 11 10 8 7 8
67 53 24 22 30 40 20 26 26 29 39 32 43 52 86 76 100 52 46 48 54 50 52 65 74 66 69 54 38 21 14 15 13 13 19 23 18 14 13 12 11 10 9 8 7
79 56 36 29 47 29 22 26 23 36 31 40 76 74 82 87 68 61 48 51 61 58 64 66 60 71 68 53 38 25 15 17 15 19 20 17 16 18 18 15 13 11 10 9 8
32 25 36 50 40 20 28 28 31 41 36 50 70 68 69 100 83 77 52 56 76 78 70 79 74 67 68 62 45 30 19 17 22 22 15 12 12 11 12 13 13 13 13 10 8
27 34 48 43 25 34 28 29 48 40 58 53 72 84 75 76 84 68 53 59 61 74 72 80 82 70 73 60 46 31 18 19 26 20 14 12 12 11 11 10 10 9 9 10 10
33 70 53 26 34 29 26 41 55 45 68 67 100 100 64 99 95 74 42 65 85 76 68 78 80 79 82 71 48 35 21 21 30 19 15 13 15 14 15 13 12 9 8 8 8
56 54 39 47 24 30 44 48 52 50 55 93 100 100 91 59 59 99 55 73 80 89 57 75 87 78 78 68 52 39 24 24 32 20 16 15 19 18 17 16 15 13 10 9 7
76 52 28 24 34 53 49 54 53 58 85 100 100 90 67 77 80 82 80 90 87 86 68 60 80 78 80 70 54 41 28 29 37 20 17 18 20 20 19 19 18 14 13 11 9
65 34 29 48 59 55 72 53 61 86 100 100 84 74 67 77 71 66 76 91 93 90 85 72 83 77 77 80 60 42 28 34 40 22 17 20 20 22 21 21 20 20 16 14 11
32 30 61 69 73 80 81 77 82 91 89 62 45 50 61 59 74 92 97 98 94 96 90 84 92 75 78 88 75 48 25 36 47 25 19 22 21 22 25 32 28 31 22 17 13
70 80 80 99 100 99 100 99 94 51 68 60 75 80 79 70 100 100 100 100 97 93 95 83 98 79 82 87 74 54 28 36 47 28 20 23 24 24 31 44 46 41 30 22 15
79 87 100 100 100 100 93 58 60 85 95 92 100 100 100 100 100 100 100 100 86 87 93 87 93 83 88 89 74 59 29 37 47 32 19 24 27 27 37 50 63 51 48 30 22
100 100 100 100 100 88 95 100 100 100 100 100 100 100 100 100 100 100 99 96 86 76 91 88 85 84 94 89 84 63 37 33 51 40 21 24 27 28 33 58 71 65 70 43 37
100 100 100 95 100 100 100 100 100 100 100 100 98 89 96 100 97 82 81 95 89 78 83 98 96 89 97 84 84 70 48 33 48 46 22 25 28 29 28 43 72 71 72 56 53
100 100 100 100 100 100 100 100 100 97 81 90 84 84 80 75 70 71 78 76 80 82 92 100 100 95 97 86 82 72 68 31 40 58 28 25 27 31 32 40 61 79 80 68 56
100 100 100 100 100 100 95 77 76 85 73 54 44 45 44 42 51 65 68 85 86 83 90 100 100 99 96 85 79 67 78 41 39 57 37 24 28 29 33 37 46 69 76 72 49
Wind_Speed
24 28 30 31 33 39 41 40 41 42 41 42 41 50 53 53 58 57 53 49 47 46 45 46 48 50 50 51 54 55 55 57 58 61 63 66 66 67 66 66 65 65 66 63 71
28 31 33 35 38 43 43 45 45 44 43 45 48 58 59 63 60 62 57 55 54 51 48 46 45 48 51 52 52 52 55 56 58 63 68 70 72 71 72 73 72 70 69 69 66
30 32 35 38 41 45 45 45 45 46 46 50 51 57 59 68 63 66 62 59 57 54 53 52 51 50 51 54 55 56 56 57 59 61 65 71 75 76 77 78 80 77 75 74 73
32 34 37 40 45 46 47 46 47 46 48 52 56 58 70 65 66 64 62 61 57 56 54 54 53 53 55 55 54 54 56 58 57 61 65 68 72 77 81 84 86 83 81 80 80
34 35 37 42 43 44 42 42 45 55 56 60 63 65 68 65 67 63 60 63 58 56 54 53 55 59 60 61 58 56 56 59 61 63 66 69 74 79 82 87 89 89 86 85 85
34 34 38 42 40 39 40 45 55 57 59 63 66 66 67 66 68 63 62 64 57 57 55 55 56 59 64 66 63 60 61 62 64 67 68 68 73 81 88 91 89 90 91 89 91
33 35 39 40 41 41 45 52 57 58 65 66 68 70 66 65 67 64 63 67 59 57 55 55 59 64 69 72 68 64 65 67 66 65 63 65 69 78 85 89 89 89 91 93 92
39 38 45 46 43 51 55 59 59 62 68 71 73 72 66 67 66 67 63 67 60 58 58 61 64 69 74 74 75 73 62 57 68 67 68 70 74 86 85 86 87 90 90 92 91
43 45 49 46 51 52 53 58 62 68 70 74 77 74 69 64 67 69 68 66 62 61 64 64 67 74 76 77 81 73 68 66 62 62 57 63 70 79 81 86 91 92 96 97 97
48 47 50 51 54 52 59 66 69 69 75 76 79 73 71 66 71 71 68 63 62 60 64 67 71 78 80 81 84 73 66 58 51 48 46 50 56 63 70 75 80 89 95 99 99
45 46 50 53 54 58 61 67 70 75 76 78 77 73 71 69 69 71 65 66 66 64 69 72 74 79 84 86 84 72 61 53 48 42 42 40 49 53 59 61 66 75 83 94 101
47 52 57 57 60 61 67 71 74 76 81 80 75 72 70 70 71 73 66 69 69 73 74 73 75 80 85 91 86 71 61 52 45 40 38 40 41 44 47 51 57 63 69 78 90
50 55 58 61 66 68 72 77 76 79 84 80 73 72 69 71 74 77 69 72 71 73 77 75 77 83 86 91 89 73 62 51 43 37 33 35 36 37 39 42 47 55 61 66 75
57 61 64 69 72 77 76 79 79 79 83 78 73 74 67 69 69 74 69 71 72 75 82 79 78 84 86 91 88 76 63 52 42 34 32 31 30 30 34 36 40 45 49 56 62
60 66 66 75 79 75 80 80 81 83 78 76 76 74 71 73 71 72 72 73 74 77 82 84 84 86 88 92 88 79 62 51 40 36 32 26 26 25 25 30 33 38 42 48 55
65 66 70 80 81 80 84 83 80 86 74 77 73 71 71 72 74 75 70 74 74 77 82 84 83 85 90 92 86 77 63 49 39 36 30 26 23 21 22 24 25 32 37 42 49
70 71 78 84 81 85 85 87 81 82 76 75 72 78 72 77 78 73 71 73 78 81 82 84 84 86 88 92 88 79 64 47 39 35 28 24 21 19 18 22 24 27 30 33 40
71 78 85 81 89 87 86 88 86 83 78 73 76 81 74 70 72 70 74 71 76 81 83 85 85 88 87 89 84 75 59 46 40 35 28 22 20 17 17 18 19 23 26 27 31
77 85 87 88 91 90 91 89 82 79 73 75 80 78 72 71 70 69 74 74 79 80 84 86 86 86 85 87 84 76 57 46 40 33 26 22 17 16 15 14 17 18 19 20 26
88 90 92 91 91 88 84 85 81 80 80 79 79 71 69 70 71 70 70 74 79 83 85 86 85 85 85 86 85 74 54 45 41 35 27 22 17 14 13 10 13 12 15 15 19
92 96 93 90 87 88 85 83 80 83 81 76 67 65 70 71 74 75 74 74 80 84 86 85 83 82 82 85 85 77 56 44 39 34 27 22 18 13 9 10 8 10 13 14 15
93 93 91 88 85 84 86 83 88 81 78 71 73 75 69 74 71 73 74 77 81 83 82 84 81 81 80 83 80 74 55 45 37 34 25 21 18 13 7 7 8 8 11 13 15
96 93 88 88 90 92 91 90 81 81 80 79 75 75 74 74 73 74 79 81 84 86 81 82 79 78 78 79 79 72 54 43 37 33 25 20 17 13 7 8 7 9 9 14 14
92 90 92 96 95 98 96 93 93 84 81 86 91 86 85 87 84 85 85 87 86 84 81 79 79 78 77 74 76 68 54 43 34 34 24 19 16 14 8 10 8 10 15 15 12
94 94 94 99 97 93 93 92 86 92 91 96 101 103 97 95 94 91 89 83 82 81 79 76 79 79 75 72 72 60 55 42 32 32 24 19 15 14 11 10 12 10 20 16 17
97 95 94 97 97 97 97 97 102 108 107 107 109 102 101 95 92 87 81 79 79 77 74 74 77 77 72 68 67 54 52 43 30 29 26 19 15 14 13 12 14 17 23 21 24
99 97 97 97 99 101 105 111 112 110 107 105 100 95 89 85 82 80 80 74 75 75 72 72 75 73 68 66 62 49 49 44 31 26 25 20 16 13 13 15 17 21 26 28 26
Wind_Direction
318 324 322 321 325 330 334 331 330 330 326 328 331 337 338 334 337 334 328 322 316 311 306 302 297 292 286 281 278 275 272 268 265 261 259 257 252 250 247 246 245 242 237 234 235
321 322 321 322 326 330 331 331 332 331 330 337 339 341 338 340 338 337 333 326 319 315 312 309 305 301 294 290 284 279 276 271 265 261 258 255 254 250 247 246 242 241 238 235 235
316 317 317 321 325 331 330 332 332 333 340 342 338 338 337 340 338 335 330 325 325 319 317 314 310 305 298 294 289 283 280 275 269 262 257 255 252 251 249 247 245 239 239 235 232
313 315 316 321 327 329 330 332 331 336 341 341 343 341 340 340 335 332 327 326 324 321 317 310 307 302 303 303 299 293 286 278 271 262 257 253 254 251 247 245 245 243 236 236 232
311 312 314 320 323 323 329 337 341 342 342 345 342 338 337 338 336 330 326 327 321 320 315 312 311 312 319 316 309 302 297 291 281 274 264 254 251 250 249 245 243 241 240 235 231
306 308 313 314 318 321 327 331 337 339 338 341 341 338 337 335 335 329 327 329 322 320 318 318 318 320 322 318 310 304 300 293 283 275 270 265 257 250 247 246 243 240 240 239 235
304 302 304 308 312 317 322 327 333 336 339 337 340 338 335 334 334 330 326 328 324 326 322 322 323 326 323 317 314 308 303 299 286 277 274 266 261 255 248 247 245 243 241 240 237
300 297 306 308 314 322 328 327 331 333 335 338 337 337 335 332 333 329 324 326 321 316 322 325 325 326 324 321 319 314 307 297 290 277 270 261 254 253 248 245 243 241 240 237 238
303 305 309 308 312 320 325 329 330 332 332 336 335 334 333 329 330 329 325 324 322 324 328 326 330 328 325 323 323 319 315 302 290 281 272 265 257 255 254 248 242 237 235 233 233
303 305 310 312 310 318 324 328 329 332 333 333 332 333 332 327 326 326 327 324 324 324 326 328 331 330 327 324 324 324 316 305 296 290 273 264 257 256 252 250 247 242 236 233 232
303 311 314 314 314 322 322 325 330 330 330 329 330 329 328 328 324 326 325 328 329 330 333 331 332 332 331 329 328 328 320 314 308 296 285 272 262 256 255 252 249 246 241 235 234
297 303 310 316 320 321 324 325 328 330 329 329 330 328 326 327 324 324 322 325 326 332 335 334 334 334 333 333 332 332 326 321 311 300 290 279 270 262 256 251 248 244 241 239 234
297 304 311 316 319 321 322 324 326 328 327 329 326 326 323 326 324 326 325 326 326 330 335 335 333 335 336 336 336 337 330 324 315 307 294 282 272 266 259 252 246 244 242 237 233
296 301 309 312 316 318 321 322 323 324 329 327 322 325 322 323 321 324 322 324 327 329 333 336 335 336 338 338 340 339 333 327 320 312 302 288 279 269 261 255 250 247 243 242 238
301 307 304 313 314 319 320 320 321 323 325 326 323 324 322 319 317 321 321 318 328 329 332 338 337 337 340 340 342 339 334 327 324 319 311 302 289 276 263 254 250 249 244 240 238
302 299 303 311 315 316 319 321 319 324 325 323 321 320 322 320 318 322 322 322 333 330 333 337 338 338 339 340 342 340 335 330 326 325 318 309 298 288 275 265 256 248 244 241 239
298 299 307 311 315 314 314 316 320 323 321 322 314 319 320 316 318 321 322 326 330 332 333 338 337 338 339 339 343 341 335 332 329 328 319 311 300 286 274 267 259 254 249 241 238
293 299 306 311 312 314 314 319 321 321 320 316 318 316 316 319 319 317 324 325 330 331 335 335 337 337 339 338 342 342 336 331 333 332 322 314 298 288 275 269 266 257 256 249 238
296 303 309 309 309 312 315 319 318 316 317 312 316 316 316 315 316 315 318 323 327 329 334 334 335 336 339 337 341 343 338 332 333 333 324 315 297 287 278 273 266 264 260 250 239
299 304 305 306 310 312 313 316 315 318 314 314 314 312 312 315 315 312 317 319 322 327 330 332 332 335 338 338 339 342 340 334 334 332 327 315 305 296 287 273 277 276 260 249 236
300 302 305 309 313 312 308 310 314 316 311 312 312 312 312 312 312 318 318 319 325 324 327 329 329 333 336 338 338 339 341 337 333 331 324 313 304 296 290 292 294 283 259 254 237
301 305 310 307 303 306 306 308 312 313 308 306 310 311 312 314 317 318 317 318 321 323 322 326 325 330 334 335 337 336 340 337 333 330 324 315 304 296 283 275 286 259 276 255 246
306 306 303 303 302 303 305 309 307 307 309 311 310 315 316 315 316 315 314 317 320 320 318 322 322 326 331 333 336 333 338 338 331 331 323 315 303 293 276 259 264 239 253 242 246
302 300 299 302 303 306 308 307 308 309 308 309 312 313 312 312 311 314 314 314 317 317 316 317 319 324 328 331 334 331 337 338 331 329 323 316 303 293 245 238 240 229 208 232 220
297 297 299 301 299 299 300 299 301 301 303 302 305 305 307 307 307 310 310 310 311 313 314 314 316 320 324 328 332 331 334 338 330 328 320 313 303 292 269 233 231 228 205 217 181
295 293 294 297 298 298 298 300 300 301 300 299 300 301 301 302 304 306 304 307 307 308 311 310 312 317 322 326 330 331 331 335 327 327 320 313 298 283 271 242 218 220 208 210 182
290 288 288 289 290 291 292 293 293 294 296 298 299 299 301 302 300 301 300 302 303 304 307 308 309 315 319 323 328 330 330 329 328 325 320 308 296 277 271 252 224 221 213 205 203